sat.trackr.live / text

‹ back to catalog

WILDFIRE 8

NORAD 57768 · 2023-133M

PAYLOAD ACTIVE UNKNOWN

§ Identity

Operator
Country
US
Launch date
2023-09-02
Launch site
AFWTR
Launch vehicle
Mass (kg)
RCS (m²)

External: N2YO · Heavens-Above · Gunter

§ Orbital elements

Epoch: 2026-09-21T17:37:25.565088Z

Period
103.94 min
Inclination
80.9913°
Eccentricity
0.0007124
Mean motion
13.85455829 rev/d
Perigee alt
939.4 km
Apogee alt
949.8 km
Semi-major
7,322.7 km
B*
6.5211e-5
RAAN
274.2119°
Arg perigee
109.5284°
Mean anomaly
250.6643°
Rev number
15,440

§ Raw data

WILDFIRE 81 57768U 23133M   26264.73432367  .00000085  00000+0  65211-4 0  99912 57768  80.9913 274.2119 0007124 109.5284 250.6643 13.85455829154404

JSON: /api/v1/satellites/57768 · /tle

For live sub-satellite position, see the globe view (requires WebGL).

§ Visibility from observer

Set your observer location to see the next 7 days of passes ≥ 10°. The values pass through the URL so the page stays shareable.

No JS? Fill the form by hand. The geolocation button needs JavaScript.